| time (UTC) | temp C | wind direction | speed KPH | gust KPH | rain 1hr cm | rain 24hr cm | rain mn cm | humidity % | barometer mb |
| 20260507115038 | 15 | 106 | 3.2 | 4.8 | 0.00 | 0.00 | 0.00 | 82 | 1019.6 |
| 20260507114545 | 15 | 103 | 3.2 | 6.4 | 0.00 | 0.00 | 0.00 | 82 | 1019.7 |
| 20260507114018 | 15 | 116 | 4.8 | 6.4 | 0.00 | 0.00 | 0.00 | 83 | 1019.7 |
| 20260507113039 | 15 | 119 | 3.2 | 9.7 | 0.00 | 0.00 | 0.00 | 82 | 1019.8 |
| 20260507113018 | 15 | 102 | 3.2 | 9.7 | 0.00 | 0.00 | 0.00 | 83 | 1019.8 |
| 20260507112018 | 15 | 113 | 3.2 | 4.8 | 0.00 | 0.00 | 0.00 | 83 | 1019.9 |
| 20260507111548 | 15 | 112 | 3.2 | 4.8 | 0.00 | 0.00 | 0.00 | 82 | 1019.9 |
| 20260507111017 | 15 | 116 | 3.2 | 4.8 | 0.00 | 0.00 | 0.00 | 83 | 1020.0 |
| 20260507110046 | 15 | 118 | 3.2 | 6.4 | 0.00 | 0.00 | 0.00 | 83 | 1019.9 |
| 20260507110017 | 15 | 118 | 3.2 | 6.4 | 0.00 | 0.00 | 0.00 | 83 | 1020.0 |
| 20260507105040 | 15 | 113 | 4.8 | 4.8 | 0.00 | 0.00 | 0.00 | 84 | 1020.1 |
| 20260507104542 | 15 | 118 | 3.2 | 6.4 | 0.00 | 0.00 | 0.00 | 83 | 1020.0 |
| 20260507104019 | 15 | 123 | 4.8 | 6.4 | 0.00 | 0.00 | 0.00 | 84 | 1020.1 |
| 20260507103041 | 14 | 101 | 3.2 | 6.4 | 0.00 | 0.00 | 0.00 | 85 | 1020.2 |
| 20260507103019 | 15 | 113 | 4.8 | 6.4 | 0.00 | 0.00 | 0.00 | 85 | 1020.3 |
| 20260507102019 | 15 | 115 | 3.2 | 4.8 | 0.00 | 0.00 | 0.00 | 84 | 1020.4 |
| 20260507101544 | 15 | 138 | 3.2 | 6.4 | 0.00 | 0.00 | 0.00 | 84 | 1020.4 |
| 20260507101019 | 15 | 109 | 3.2 | 4.8 | 0.00 | 0.00 | 0.00 | 84 | 1020.5 |
| 20260507100045 | 15 | 127 | 3.2 | 6.4 | 0.00 | 0.00 | 0.00 | 83 | 1020.4 |
| 20260507100019 | 15 | 130 | 4.8 | 6.4 | 0.00 | 0.00 | 0.00 | 83 | 1020.5 |
| 20260507095019 | 15 | 104 | 3.2 | 6.4 | 0.00 | 0.00 | 0.00 | 82 | 1020.5 |
| 20260507094542 | 15 | 109 | 4.8 | 11.3 | 0.00 | 0.00 | 0.00 | 82 | 1020.5 |
| 20260507094019 | 15 | 100 | 4.8 | 6.4 | 0.00 | 0.00 | 0.00 | 82 | 1020.6 |
| 20260507093041 | 15 | 100 | 1.6 | 6.4 | 0.00 | 0.00 | 0.00 | 81 | 1020.6 |
| 20260507093019 | 15 | 101 | 3.2 | 4.8 | 0.00 | 0.00 | 0.00 | 82 | 1020.6 |
| 20260507092019 | 15 | 105 | 4.8 | 6.4 | 0.00 | 0.00 | 0.00 | 83 | 1020.8 |
| 20260507091541 | 15 | 105 | 3.2 | 6.4 | 0.00 | 0.00 | 0.00 | 82 | 1020.7 |
| 20260507091019 | 15 | 101 | 4.8 | 4.8 | 0.00 | 0.00 | 0.00 | 82 | 1020.7 |
| 20260507090042 | 15 | 90 | 3.2 | 6.4 | 0.00 | 0.00 | 0.00 | 83 | 1020.6 |
| 20260507090040 | 15 | 98 | 4.8 | 6.4 | 0.00 | 0.00 | 0.00 | 83 | 1020.8 |
| 20260507085019 | 15 | 96 | 3.2 | 4.8 | 0.00 | 0.00 | 0.00 | 84 | 1020.9 |
| 20260507084551 | 15 | 99 | 3.2 | 6.4 | 0.00 | 0.00 | 0.00 | 84 | 1020.7 |
| 20260507084019 | 15 | 104 | 3.2 | 6.4 | 0.00 | 0.00 | 0.00 | 85 | 1020.9 |
| 20260507083048 | 15 | 110 | 3.2 | 6.4 | 0.00 | 0.00 | 0.00 | 86 | 1020.8 |
| 20260507083019 | 15 | 113 | 4.8 | 4.8 | 0.00 | 0.00 | 0.00 | 87 | 1020.9 |
| 20260507082101 | 15 | 106 | 4.8 | 6.4 | 0.00 | 0.00 | 0.00 | 86 | 1021.0 |
| 20260507081541 | 15 | 110 | 3.2 | 6.4 | 0.00 | 0.00 | 0.00 | 86 | 1021.0 |
| 20260507081040 | 15 | 92 | 3.2 | 4.8 | 0.00 | 0.00 | 0.00 | 87 | 1021.0 |
| 20260507080055 | 15 | 96 | 3.2 | 6.4 | 0.00 | 0.00 | 0.00 | 86 | 1020.8 |
| 20260507080019 | 15 | 101 | 4.8 | 6.4 | 0.00 | 0.00 | 0.00 | 87 | 1020.9 |
| 20260507075019 | 15 | 105 | 4.8 | 4.8 | 0.00 | 0.00 | 0.00 | 86 | 1021.0 |
| 20260507074544 | 15 | 107 | 3.2 | 9.7 | 0.00 | 0.00 | 0.00 | 86 | 1020.9 |
| 20260507074040 | 15 | 92 | 3.2 | 4.8 | 0.00 | 0.00 | 0.00 | 88 | 1020.9 |
| 20260507073052 | 15 | 105 | 3.2 | 4.8 | 0.00 | 0.00 | 0.00 | 89 | 1020.7 |
| 20260507073018 | 15 | 105 | 3.2 | 4.8 | 0.00 | 0.00 | 0.00 | 89 | 1020.8 |
| 20260507072019 | 15 | 102 | 3.2 | 4.8 | 0.00 | 0.00 | 0.00 | 90 | 1020.6 |
| 20260507071558 | 15 | 102 | 3.2 | 4.8 | 0.00 | 0.00 | 0.00 | 90 | 1020.6 |
| 20260507071019 | 16 | 104 | 3.2 | 4.8 | 0.00 | 0.00 | 0.00 | 92 | 1020.5 |
| 20260507070043 | 15 | 105 | 3.2 | 4.8 | 0.00 | 0.00 | 0.00 | 92 | 1020.4 |
| 20260507070019 | 16 | 114 | 3.2 | 4.8 | 0.00 | 0.00 | 0.00 | 92 | 1020.5 |
| 20260507065019 | 16 | 114 | 3.2 | 4.8 | 0.00 | 0.00 | 0.00 | 91 | 1020.4 |
| 20260507064546 | 16 | 111 | 1.6 | 4.8 | 0.00 | 0.00 | 0.00 | 90 | 1020.3 |
| 20260507064040 | 16 | 45 | 1.6 | 3.2 | 0.00 | 0.00 | 0.00 | 92 | 1020.2 |
| 20260507063042 | 16 | 91 | 1.6 | 4.8 | 0.00 | 0.00 | 0.00 | 93 | 1020.0 |
| 20260507063019 | 16 | 96 | 1.6 | 3.2 | 0.00 | 0.00 | 0.00 | 94 | 1020.1 |
| 20260507062019 | 17 | 126 | 3.2 | 4.8 | 0.00 | 0.00 | 0.00 | 95 | 1019.9 |
| 20260507061544 | 17 | 132 | 0.0 | 3.2 | 0.00 | 0.00 | 0.00 | 95 | 1019.9 |
| 20260507061019 | 17 | 136 | 1.6 | 3.2 | 0.00 | 0.00 | 0.00 | 96 | 1019.8 |
| 20260507060044 | 17 | 0 | 0.0 | 1.6 | 0.00 | 0.00 | 0.00 | 95 | 1019.9 |
| 20260507060041 | 17 | 0.0 | 0.0 | 0.00 | 0.00 | 0.00 | 96 | 1019.8 | |
| 20260507055019 | 17 | 0.0 | 0.0 | 0.00 | 0.00 | 0.00 | 97 | 1019.7 | |
| 20260507054549 | 17 | 146 | 0.0 | 3.2 | 0.00 | 0.00 | 0.00 | 96 | 1019.5 |
| 20260507054019 | 17 | 143 | 1.6 | 3.2 | 0.00 | 0.00 | 0.00 | 97 | 1019.5 |
| 20260507053046 | 17 | 0 | 0.0 | 1.6 | 0.00 | 0.00 | 0.00 | 97 | 1019.5 |
| 20260507053040 | 17 | 0.0 | 1.6 | 0.00 | 0.00 | 0.00 | 97 | 1019.5 | |
| 20260507052019 | 17 | 0.0 | 0.0 | 0.00 | 0.00 | 0.00 | 97 | 1019.2 | |
| 20260507051541 | 17 | 332 | 0.0 | 3.2 | 0.00 | 0.00 | 0.00 | 96 | 1019.1 |
| 20260507051019 | 17 | 327 | 0.0 | 3.2 | 0.00 | 0.00 | 0.00 | 97 | 1019.1 |
| 20260507050048 | 17 | 343 | 0.0 | 4.8 | 0.00 | 0.00 | 0.00 | 96 | 1018.8 |
| 20260507050019 | 18 | 338 | 1.6 | 3.2 | 0.00 | 0.00 | 0.00 | 96 | 1019.0 |
| 20260507045019 | 18 | 327 | 1.6 | 4.8 | 0.00 | 0.00 | 0.00 | 96 | 1018.8 |
| 20260507044542 | 17 | 0 | 0.0 | 8.0 | 0.00 | 0.00 | 0.00 | 96 | 1018.8 |
| 20260507044019 | 18 | 345 | 3.2 | 4.8 | 0.00 | 0.00 | 0.00 | 96 | 1018.9 |
| 20260507043041 | 18 | 0 | 1.6 | 6.4 | 0.00 | 0.00 | 0.00 | 95 | 1018.8 |
| 20260507043019 | 18 | 294 | 1.6 | 3.2 | 0.00 | 0.00 | 0.00 | 96 | 1018.8 |
| 20260507042019 | 18 | 337 | 3.2 | 6.4 | 0.00 | 0.00 | 0.00 | 95 | 1018.6 |
| 20260507041541 | 18 | 327 | 3.2 | 9.7 | 0.00 | 0.00 | 0.00 | 94 | 1018.6 |
| 20260507041019 | 18 | 354 | 4.8 | 6.4 | 0.00 | 0.00 | 0.00 | 95 | 1018.5 |
| 20260507040051 | 18 | 310 | 3.2 | 8.0 | 0.00 | 0.00 | 0.00 | 94 | 1018.4 |
| 20260507040019 | 18 | 341 | 4.8 | 8.0 | 0.00 | 0.00 | 0.00 | 94 | 1018.4 |
| 20260507035018 | 18 | 316 | 3.2 | 6.4 | 0.00 | 0.00 | 0.00 | 94 | 1018.4 |
| 20260507034554 | 18 | 17 | 4.8 | 9.7 | 0.00 | 0.00 | 0.00 | 93 | 1018.4 |
| 20260507034019 | 18 | 338 | 6.4 | 8.0 | 0.00 | 0.00 | 0.00 | 93 | 1018.4 |
| 20260507033044 | 18 | 339 | 6.4 | 16.1 | 0.00 | 0.00 | 0.00 | 92 | 1018.3 |
| 20260507033019 | 18 | 343 | 6.4 | 9.7 | 0.00 | 0.00 | 0.00 | 92 | 1018.4 |
| 20260507032039 | 20 | 338 | 4.8 | 9.7 | 0.00 | 0.00 | 0.00 | 91 | 1018.3 |
| 20260507031541 | 20 | 329 | 4.8 | 12.9 | 0.00 | 0.00 | 0.00 | 90 | 1018.2 |
| 20260507031040 | 20 | 329 | 6.4 | 9.7 | 0.00 | 0.00 | 0.00 | 91 | 1018.2 |
| 20260507030041 | 20 | 9 | 3.2 | 14.5 | 0.00 | 0.00 | 0.00 | 90 | 1018.0 |
| 20260507025019 | 20 | 337 | 4.8 | 12.9 | 0.00 | 0.00 | 0.00 | 91 | 1017.8 |
| 20260507024540 | 20 | 351 | 8.0 | 16.1 | 0.00 | 0.00 | 0.00 | 89 | 1017.8 |
| 20260507024019 | 20 | 326 | 8.0 | 12.9 | 0.00 | 0.00 | 0.00 | 90 | 1017.9 |
| 20260507023043 | 20 | 273 | 8.0 | 17.7 | 0.00 | 0.00 | 0.00 | 89 | 1017.9 |
| 20260507023040 | 20 | 338 | 8.0 | 17.7 | 0.00 | 0.00 | 0.00 | 90 | 1017.9 |
| 20260507022019 | 20 | 314 | 8.0 | 16.1 | 0.00 | 0.00 | 0.00 | 90 | 1017.9 |
| 20260507021546 | 20 | 321 | 3.2 | 20.9 | 0.00 | 0.00 | 0.00 | 90 | 1017.9 |
| 20260507021018 | 20 | 308 | 6.4 | 11.3 | 0.00 | 0.00 | 0.00 | 91 | 1018.0 |
| 20260507020047 | 20 | 352 | 9.7 | 19.3 | 0.00 | 0.00 | 0.00 | 90 | 1018.1 |
| 20260507020019 | 20 | 356 | 8.0 | 14.5 | 0.00 | 0.00 | 0.00 | 90 | 1018.1 |
| 20260507015019 | 21 | 338 | 8.0 | 16.1 | 0.00 | 0.00 | 0.00 | 91 | 1018.0 |
| 20260507014549 | 20 | 349 | 4.8 | 19.3 | 0.00 | 0.00 | 0.00 | 91 | 1018.0 |
| 20260507014019 | 20 | 342 | 12.9 | 17.7 | 0.00 | 0.00 | 0.00 | 89 | 1018.2 |
| 20260507013041 | 20 | 322 | 6.4 | 17.7 | 0.00 | 0.00 | 0.00 | 90 | 1017.9 |
| 20260507013019 | 20 | 340 | 8.0 | 17.7 | 0.00 | 0.00 | 0.00 | 92 | 1018.0 |
| 20260507012019 | 20 | 339 | 8.0 | 14.5 | 0.00 | 0.00 | 0.00 | 92 | 1018.1 |
| 20260507011556 | 19 | 329 | 4.8 | 12.9 | 0.00 | 0.00 | 0.00 | 93 | 1018.1 |
| 20260507011019 | 19 | 339 | 8.0 | 12.9 | 0.00 | 0.00 | 0.00 | 94 | 1018.2 |
| 20260507010044 | 18 | 283 | 4.8 | 16.1 | 0.00 | 0.00 | 0.00 | 95 | 1018.2 |
| 20260507010040 | 19 | 331 | 6.4 | 9.7 | 0.00 | 0.00 | 0.00 | 95 | 1018.2 |
| 20260507005019 | 19 | 330 | 8.0 | 12.9 | 0.00 | 0.00 | 0.00 | 96 | 1018.3 |
| 20260507004543 | 18 | 346 | 6.4 | 16.1 | 0.00 | 0.00 | 0.00 | 96 | 1018.4 |
| 20260507004019 | 19 | 332 | 6.4 | 12.9 | 0.00 | 0.00 | 0.00 | 95 | 1018.4 |
| 20260507003041 | 19 | 336 | 3.2 | 17.7 | 0.00 | 0.00 | 0.00 | 95 | 1018.4 |
| 20260507003019 | 19 | 308 | 3.2 | 11.3 | 0.00 | 0.00 | 0.00 | 96 | 1018.4 |
| 20260507002019 | 19 | 330 | 4.8 | 8.0 | 0.00 | 0.00 | 0.00 | 95 | 1018.6 |
| 20260507001550 | 19 | 345 | 4.8 | 19.3 | 0.00 | 0.00 | 0.00 | 94 | 1018.5 |
| 20260507001040 | 19 | 341 | 6.4 | 9.7 | 0.00 | 0.00 | 0.00 | 94 | 1018.8 |
| 20260507000042 | 19 | 315 | 4.8 | 16.1 | 0.00 | 0.00 | 0.00 | 92 | 1018.8 |
| 20260507000019 | 20 | 313 | 6.4 | 8.0 | 0.00 | 0.00 | 0.00 | 92 | 1018.8 |
| 20260506235018 | 20 | 341 | 8.0 | 12.9 | 0.00 | 0.00 | 0.00 | 89 | 1018.9 |
| 20260506234545 | 20 | 327 | 3.2 | 14.5 | 0.00 | 0.00 | 0.00 | 88 | 1018.8 |
| 20260506234018 | 20 | 315 | 4.8 | 8.0 | 0.00 | 0.00 | 0.00 | 89 | 1019.0 |
| 20260506233043 | 20 | 219 | 1.6 | 12.9 | 0.00 | 0.00 | 0.00 | 89 | 1019.1 |
| 20260506233020 | 20 | 328 | 3.2 | 6.4 | 0.00 | 0.00 | 0.00 | 90 | 1019.1 |
| 20260506232019 | 20 | 343 | 4.8 | 8.0 | 0.00 | 0.00 | 0.00 | 88 | 1019.2 |
| 20260506231541 | 20 | 339 | 6.4 | 14.5 | 0.00 | 0.00 | 0.00 | 86 | 1019.1 |
| 20260506231019 | 20 | 345 | 3.2 | 8.0 | 0.00 | 0.00 | 0.00 | 90 | 1019.2 |
| 20260506230048 | 20 | 336 | 3.2 | 12.9 | 0.00 | 0.00 | 0.00 | 90 | 1019.1 |
| 20260506230018 | 20 | 293 | 4.8 | 8.0 | 0.00 | 0.00 | 0.00 | 91 | 1019.2 |
| 20260506225019 | 20 | 346 | 8.0 | 12.9 | 0.00 | 0.00 | 0.00 | 91 | 1019.4 |
| 20260506224540 | 19 | 344 | 4.8 | 9.7 | 0.00 | 0.00 | 0.00 | 91 | 1019.4 |
| 20260506224019 | 20 | 348 | 4.8 | 8.0 | 0.00 | 0.00 | 0.00 | 92 | 1019.5 |
| 20260506223042 | 19 | 329 | 3.2 | 9.7 | 0.00 | 0.00 | 0.00 | 91 | 1019.4 |
| 20260506223018 | 20 | 319 | 4.8 | 9.7 | 0.00 | 0.00 | 0.00 | 91 | 1019.4 |
| 20260506222040 | 20 | 346 | 6.4 | 9.7 | 0.00 | 0.00 | 0.00 | 90 | 1019.5 |
| 20260506221545 | 20 | 9 | 4.8 | 12.9 | 0.00 | 0.00 | 0.00 | 89 | 1019.5 |
| 20260506221018 | 20 | 340 | 4.8 | 8.0 | 0.00 | 0.00 | 0.00 | 91 | 1019.6 |
| 20260506220057 | 20 | 336 | 3.2 | 8.0 | 0.00 | 0.00 | 0.00 | 89 | 1019.6 |
| 20260506220018 | 20 | 326 | 3.2 | 6.4 | 0.00 | 0.00 | 0.00 | 89 | 1019.7 |
| 20260506215019 | 20 | 359 | 3.2 | 4.8 | 0.00 | 0.00 | 0.00 | 88 | 1019.8 |
| 20260506214545 | 20 | 265 | 3.2 | 9.7 | 0.00 | 0.00 | 0.00 | 88 | 1019.7 |
| 20260506214019 | 21 | 315 | 1.6 | 3.2 | 0.00 | 0.00 | 0.00 | 88 | 1019.8 |
| 20260506213041 | 21 | 230 | 3.2 | 9.7 | 0.00 | 0.00 | 0.00 | 87 | 1019.9 |
| 20260506212019 | 21 | 321 | 3.2 | 4.8 | 0.00 | 0.00 | 0.00 | 91 | 1020.2 |
| 20260506211541 | 20 | 299 | 3.2 | 11.3 | 0.00 | 0.00 | 0.00 | 89 | 1020.0 |
| 20260506211018 | 20 | 294 | 3.2 | 4.8 | 0.00 | 0.00 | 0.00 | 88 | 1020.2 |
| 20260506210055 | 21 | 0 | 3.2 | 12.9 | 0.00 | 0.00 | 0.00 | 87 | 1020.1 |
| 20260506210019 | 21 | 253 | 3.2 | 6.4 | 0.00 | 0.00 | 0.00 | 88 | 1020.2 |
| 20260506205018 | 20 | 334 | 4.8 | 6.4 | 0.00 | 0.00 | 0.00 | 88 | 1020.3 |
| 20260506204544 | 20 | 344 | 3.2 | 12.9 | 0.00 | 0.00 | 0.00 | 87 | 1020.1 |
| 20260506204018 | 20 | 339 | 4.8 | 6.4 | 0.00 | 0.00 | 0.00 | 88 | 1020.1 |
| 20260506203121 | 20 | 271 | 3.2 | 8.0 | 0.00 | 0.00 | 0.00 | 86 | 1020.0 |
| 20260506203018 | 20 | 316 | 1.6 | 6.4 | 0.00 | 0.00 | 0.00 | 86 | 1020.0 |
| 20260506202019 | 21 | 355 | 1.6 | 4.8 | 0.00 | 0.00 | 0.00 | 83 | 1020.1 |
| 20260506201541 | 20 | 229 | 1.6 | 8.0 | 0.00 | 0.00 | 0.00 | 87 | 1020.1 |
| 20260506201018 | 20 | 327 | 3.2 | 6.4 | 0.00 | 0.00 | 0.00 | 88 | 1020.0 |
| 20260506200047 | 20 | 311 | 1.6 | 9.7 | 0.00 | 0.00 | 0.00 | 87 | 1019.8 |
| 20260506200019 | 20 | 305 | 3.2 | 4.8 | 0.00 | 0.00 | 0.00 | 87 | 1019.9 |
| 20260506195019 | 20 | 268 | 3.2 | 4.8 | 0.00 | 0.00 | 0.00 | 85 | 1020.0 |
| 20260506194545 | 20 | 287 | 3.2 | 8.0 | 0.00 | 0.00 | 0.00 | 84 | 1020.1 |
| 20260506194018 | 20 | 304 | 1.6 | 3.2 | 0.00 | 0.00 | 0.00 | 86 | 1020.1 |
| 20260506193045 | 20 | 315 | 1.6 | 6.4 | 0.00 | 0.00 | 0.00 | 82 | 1019.9 |
| 20260506193018 | 20 | 300 | 1.6 | 6.4 | 0.00 | 0.00 | 0.00 | 83 | 1020.1 |
| 20260506192019 | 20 | 323 | 3.2 | 6.4 | 0.00 | 0.00 | 0.00 | 83 | 1019.9 |
| 20260506191544 | 20 | 268 | 1.6 | 8.0 | 0.00 | 0.00 | 0.00 | 81 | 1019.8 |
| 20260506191019 | 20 | 278 | 1.6 | 3.2 | 0.00 | 0.00 | 0.00 | 79 | 1019.8 |
| 20260506190048 | 20 | 0 | 1.6 | 4.8 | 0.00 | 0.00 | 0.00 | 79 | 1019.7 |
| 20260506190019 | 21 | 268 | 1.6 | 4.8 | 0.00 | 0.00 | 0.00 | 79 | 1019.7 |
| 20260506185018 | 21 | 311 | 1.6 | 4.8 | 0.00 | 0.00 | 0.00 | 78 | 1019.7 |
| 20260506184554 | 20 | 318 | 1.6 | 4.8 | 0.00 | 0.00 | 0.00 | 78 | 1019.5 |
| 20260506184018 | 20 | 314 | 1.6 | 3.2 | 0.00 | 0.00 | 0.00 | 79 | 1019.6 |
| 20260506183044 | 20 | 340 | 1.6 | 4.8 | 0.00 | 0.00 | 0.00 | 77 | 1019.6 |
| 20260506183019 | 20 | 296 | 3.2 | 4.8 | 0.00 | 0.00 | 0.00 | 79 | 1019.7 |
| 20260506182018 | 20 | 312 | 3.2 | 4.8 | 0.00 | 0.00 | 0.00 | 79 | 1019.6 |
| 20260506181541 | 19 | 0 | 0.0 | 3.2 | 0.00 | 0.00 | 0.00 | 80 | 1019.6 |
| 20260506181039 | 19 | 296 | 0.0 | 3.2 | 0.00 | 0.00 | 0.00 | 82 | 1019.5 |
| 20260506180042 | 19 | 315 | 0.0 | 6.4 | 0.00 | 0.00 | 0.00 | 77 | 1019.2 |
| 20260506180040 | 20 | 297 | 1.6 | 3.2 | 0.00 | 0.00 | 0.00 | 77 | 1019.3 |
| 20260506175101 | 20 | 341 | 4.8 | 6.4 | 0.00 | 0.00 | 0.00 | 74 | 1019.2 |
| 20260506174543 | 19 | 313 | 0.0 | 6.4 | 0.00 | 0.00 | 0.00 | 71 | 1019.1 |
| 20260506174018 | 18 | 61 | 1.6 | 3.2 | 0.00 | 0.00 | 0.00 | 74 | 1019.1 |
| 20260506173053 | 17 | 52 | 3.2 | 11.3 | 0.00 | 0.00 | 0.00 | 74 | 1019.0 |
| 20260506173019 | 17 | 90 | 3.2 | 6.4 | 0.00 | 0.00 | 0.00 | 75 | 1019.1 |
| 20260506172019 | 16 | 105 | 4.8 | 11.3 | 0.00 | 0.00 | 0.00 | 76 | 1019.0 |
| 20260506171544 | 16 | 89 | 3.2 | 9.7 | 0.00 | 0.00 | 0.00 | 77 | 1018.9 |
| 20260506171019 | 16 | 68 | 1.6 | 4.8 | 0.00 | 0.00 | 0.00 | 79 | 1019.0 |
| 20260506170043 | 15 | 122 | 3.2 | 9.7 | 0.00 | 0.00 | 0.00 | 80 | 1018.7 |
| 20260506170040 | 15 | 110 | 3.2 | 9.7 | 0.00 | 0.00 | 0.00 | 81 | 1018.7 |
| 20260506165019 | 15 | 110 | 3.2 | 4.8 | 0.00 | 0.00 | 0.00 | 81 | 1018.5 |
| 20260506164547 | 14 | 101 | 3.2 | 6.4 | 0.00 | 0.00 | 0.00 | 82 | 1018.4 |
| 20260506164018 | 15 | 114 | 3.2 | 6.4 | 0.00 | 0.00 | 0.00 | 82 | 1018.5 |
| 20260506163056 | 15 | 128 | 3.2 | 9.7 | 0.00 | 0.00 | 0.00 | 80 | 1018.2 |
| 20260506163018 | 15 | 118 | 3.2 | 4.8 | 0.00 | 0.00 | 0.00 | 80 | 1018.3 |
| 20260506162039 | 15 | 116 | 3.2 | 4.8 | 0.00 | 0.00 | 0.00 | 81 | 1018.3 |
| 20260506161544 | 14 | 90 | 3.2 | 8.0 | 0.00 | 0.00 | 0.00 | 82 | 1018.1 |
| 20260506161018 | 14 | 103 | 3.2 | 6.4 | 0.00 | 0.00 | 0.00 | 83 | 1018.2 |
| 20260506160045 | 13 | 114 | 1.6 | 4.8 | 0.00 | 0.00 | 0.00 | 81 | 1018.1 |
| 20260506160018 | 14 | 106 | 3.2 | 3.2 | 0.00 | 0.00 | 0.00 | 82 | 1018.2 |
| 20260506155518 | 14 | 119 | 3.2 | 4.8 | 0.00 | 0.00 | 0.00 | 82 | 1018.1 |
| 20260506154619 | 13 | 106 | 4.8 | 8.0 | 0.00 | 0.00 | 0.00 | 82 | 1017.9 |
| 20260506154552 | 13 | 93 | 3.2 | 6.4 | 0.00 | 0.00 | 0.00 | 82 | 1017.9 |
| 20260506153618 | 13 | 116 | 3.2 | 4.8 | 0.00 | 0.00 | 0.00 | 83 | 1018.0 |
| 20260506153040 | 13 | 119 | 1.6 | 4.8 | 0.00 | 0.00 | 0.00 | 82 | 1017.9 |
| 20260506152618 | 14 | 111 | 3.2 | 4.8 | 0.00 | 0.00 | 0.00 | 82 | 1018.0 |
| 20260506151619 | 14 | 115 | 3.2 | 4.8 | 0.00 | 0.00 | 0.00 | 82 | 1017.9 |
| 20260506151541 | 14 | 115 | 3.2 | 6.4 | 0.00 | 0.00 | 0.00 | 81 | 1017.9 |
| 20260506150618 | 15 | 108 | 3.2 | 4.8 | 0.00 | 0.00 | 0.00 | 80 | 1017.8 |
| 20260506150045 | 15 | 105 | 3.2 | 11.3 | 0.00 | 0.00 | 0.00 | 79 | 1017.7 |
| 20260506145619 | 15 | 109 | 3.2 | 6.4 | 0.00 | 0.00 | 0.00 | 80 | 1017.7 |
| 20260506144619 | 15 | 110 | 6.4 | 12.9 | 0.00 | 0.00 | 0.00 | 80 | 1017.7 |
| 20260506144542 | 15 | 105 | 4.8 | 12.9 | 0.00 | 0.00 | 0.00 | 79 | 1017.7 |
| 20260506143619 | 15 | 109 | 4.8 | 6.4 | 0.00 | 0.00 | 0.00 | 80 | 1017.7 |
| 20260506143042 | 14 | 107 | 4.8 | 11.3 | 0.00 | 0.00 | 0.00 | 79 | 1017.6 |
| 20260506142619 | 15 | 108 | 3.2 | 4.8 | 0.00 | 0.00 | 0.00 | 80 | 1017.6 |
| 20260506141619 | 14 | 102 | 6.4 | 9.7 | 0.00 | 0.00 | 0.00 | 83 | 1017.6 |
| 20260506141541 | 14 | 132 | 4.8 | 6.4 | 0.00 | 0.00 | 0.00 | 82 | 1017.6 |
| 20260506140618 | 14 | 110 | 3.2 | 6.4 | 0.00 | 0.00 | 0.00 | 83 | 1017.7 |
| 20260506140041 | 14 | 129 | 3.2 | 6.4 | 0.00 | 0.00 | 0.00 | 81 | 1017.8 |
| 20260506135618 | 14 | 118 | 3.2 | 6.4 | 0.00 | 0.00 | 0.00 | 80 | 1017.9 |
| 20260506134618 | 14 | 119 | 4.8 | 6.4 | 0.00 | 0.00 | 0.00 | 79 | 1017.7 |
| 20260506134545 | 14 | 136 | 3.2 | 8.0 | 0.00 | 0.00 | 0.00 | 79 | 1017.7 |
| 20260506133618 | 15 | 108 | 3.2 | 4.8 | 0.00 | 0.00 | 0.00 | 80 | 1017.8 |
| 20260506133047 | 14 | 119 | 3.2 | 6.4 | 0.00 | 0.00 | 0.00 | 79 | 1017.8 |
| 20260506132618 | 14 | 104 | 4.8 | 4.8 | 0.00 | 0.00 | 0.00 | 78 | 1017.7 |
| 20260506131617 | 14 | 115 | 3.2 | 4.8 | 0.00 | 0.00 | 0.00 | 78 | 1017.6 |
| 20260506131542 | 14 | 121 | 3.2 | 11.3 | 0.00 | 0.00 | 0.00 | 78 | 1017.6 |
| 20260506130618 | 14 | 112 | 4.8 | 4.8 | 0.00 | 0.00 | 0.00 | 78 | 1017.7 |
| 20260506130041 | 13 | 111 | 3.2 | 6.4 | 0.00 | 0.00 | 0.00 | 78 | 1017.7 |
| 20260506125618 | 14 | 117 | 3.2 | 4.8 | 0.00 | 0.00 | 0.00 | 78 | 1017.7 |
| 20260506124619 | 14 | 117 | 4.8 | 11.3 | 0.00 | 0.00 | 0.00 | 75 | 1017.8 |
| 20260506124544 | 14 | 117 | 3.2 | 11.3 | 0.00 | 0.00 | 0.00 | 75 | 1017.7 |
| 20260506123618 | 14 | 114 | 4.8 | 6.4 | 0.00 | 0.00 | 0.00 | 77 | 1017.9 |
| 20260506123037 | 13 | 126 | 3.2 | 6.4 | 0.00 | 0.00 | 0.00 | 77 | 1017.7 |
| 20260506122639 | 14 | 125 | 4.8 | 6.4 | 0.00 | 0.00 | 0.00 | 77 | 1017.7 |
| 20260506121619 | 15 | 110 | 3.2 | 4.8 | 0.00 | 0.00 | 0.00 | 76 | 1017.9 |
| 20260506121553 | 14 | 107 | 3.2 | 9.7 | 0.00 | 0.00 | 0.00 | 76 | 1017.9 |
| 20260506120618 | 15 | 103 | 4.8 | 4.8 | 0.00 | 0.00 | 0.00 | 75 | 1018.2 |
| 20260506120044 | 15 | 114 | 3.2 | 9.7 | 0.00 | 0.00 | 0.00 | 73 | 1018.0 |
| 20260506115619 | 15 | 119 | 4.8 | 8.0 | 0.00 | 0.00 | 0.00 | 73 | 1018.1 |